Location: Fort Hays State University
(38.8712°N, 99.3432°W)
Time: 11:09:10
(UTC-05:00)

Cosmos 2279 Rocket - Visible Passes

Search period start: 27 May 2016 00:00
Search period end: 06 June 2016 00:00
Orbit: 964 x 980 km, 82.9° (Epoch: 25 May)

Date Brightness Start Highest point End Pass type
(mag) Time Alt. Az. Time Alt. Az. Time Alt. Az.
27 May 5.8 00:55:37 10° NW 00:59:55 20° W 01:01:43 17° WSW visible
27 May 5.8 21:50:17 10° NE 21:53:31 14° ENE 21:56:43 10° E visible
27 May 4.0 23:33:17 10° N 23:39:33 81° W 23:41:33 46° S visible
28 May 5.2 22:13:10 10° NNE 22:18:18 26° ENE 22:21:24 18° ESE visible
28 May 4.8 23:57:53 10° NNW 00:03:46 45° W 00:05:59 33° SW visible
29 May 4.4 22:36:54 10° N 22:42:54 46° ENE 22:45:52 28° SE visible
30 May 5.6 00:22:55 10° NNW 00:27:49 25° W 00:30:28 19° WSW visible
30 May 3.9 23:01:03 10° N 23:07:20 82° E 23:10:21 33° SSE visible
31 May 6.3 00:49:01 10° NW 00:51:43 13° W 00:54:26 10° WSW visible
31 May 5.4 21:41:19 10° NNE 21:45:55 21° ENE 21:50:14 11° ESE visible
31 May 4.5 23:25:30 10° NNW 23:31:36 56° W 23:34:51 28° SSW visible
01 Jun 4.7 22:04:50 10° N 22:10:35 37° ENE 22:14:45 17° SE visible
01 Jun 5.4 23:50:21 10° NNW 23:55:43 31° W 23:59:22 18° SW visible
02 Jun 4.0 22:28:50 10° N 22:35:05 67° E 22:39:18 22° SSE visible
03 Jun 6.2 00:15:54 10° NW 00:19:40 17° W 00:23:27 10° WSW visible
03 Jun 4.2 22:53:11 10° NNW 22:59:24 70° W 23:03:52 20° S visible
04 Jun 5.0 21:32:50 10° NNE 21:38:15 30° ENE 21:43:39 10° SE visible
04 Jun 5.1 23:17:52 10° NNW 23:23:35 38° W 23:28:28 14° SSW visible
05 Jun 4.2 21:56:41 10° N 22:02:49 53° E 22:08:28 12° SSE visible
05 Jun 6.0 23:43:05 10° NW 23:47:36 21° W 23:52:07 10° SW visible
